Location: Mauna Kea VIS
(19.7591°N, 155.4561°W)
Time: 09:55:59
(UTC-10:00)

Daily predictions for brighter satellites

Satellite Brightness Start Highest point End
(mag) Time Altitude Azimuth Time Altitude Azimuth Time Altitude Azimuth
Cosmos 44 3.7 18:39:05 10° NNW 18:44:10 52° ENE 18:49:22 10° SE
Iridium 4 Rocket 3.7 18:41:04 10° NNE 18:45:01 33° E 18:48:48 10° SSE
Okean 1 4.2 18:43:46 10° NNE 18:47:06 26° E 18:50:26 10° SE
MOS 1 4.3 18:45:55 10° SSE 18:51:28 62° ENE 18:57:02 10° N
Tiangong 1 1.7 18:51:43 10° SSW 18:53:36 22° SE 18:55:17 11° E
Cosmos 1464 Rocket 4.0 18:48:01 10° N 18:54:02 59° E 19:00:07 10° SSE
CZ-4 R/B 3.5 18:51:45 10° SSW 18:55:26 32° W 18:59:02 10° NW
Cosmos 1437 Rocket 3.2 18:55:17 10° SSW 18:59:16 69° W 19:03:19 10° N
EO 1 Del DPAF 4.0 18:55:43 10° N 18:59:26 56° WNW 19:03:09 10° SSW
Cosmos 1536 3.8 19:04:39 10° SSE 19:08:02 26° E 19:11:25 10° NE
DELTA 2 R/B (2) 2.6 19:06:59 10° WNW 19:08:41 76° SW 19:09:38 21° SE
Lacrosse 5 rocket 1.1 19:06:14 10° SW 19:10:03 81° WNW 19:13:42 10° NNE
Cosmos 1975 Rocket 3.5 19:07:11 10° NNE 19:11:22 39° E 19:15:32 10° SSE
Cosmos 1452 Rocket 4.0 19:07:18 10° NNW 19:12:28 64° WSW 19:17:37 10° S
Cosmos 2251 Rocket 3.5 19:09:57 10° S 19:15:04 60° ESE 19:20:12 10° NNE
ARGOS Delta rocket 3.9 19:11:26 10° NNE 19:15:48 46° E 19:20:01 10° S
ERS-2 2.6 19:14:17 10° SE 19:17:40 36° ENE 19:21:04 10° N
GPS 2-14 Rocket1 3.4 19:14:01 10° W 19:18:03 51° SSW 19:21:08 16° ESE
Cosmos 397 4.3 19:15:08 10° SSW 19:19:08 74° ESE 19:23:23 10° NNE
SPOT 3 Rocket 3.7 19:17:31 10° S 19:22:42 80° WSW 19:27:54 10° NNW
FREGAT/IRIS 2.5 19:21:17 10° SSE 19:24:09 53° ENE 19:27:02 10° N
HJ-1C 3.7 19:27:22 10° SSE 19:30:37 42° ENE 19:33:50 10° N
Cosmos 2034 Rocket 4.1 19:26:08 10° N 19:32:30 86° W 19:38:48 10° S
Meteor 1-11 Rocket 3.7 19:28:51 10° S 19:34:22 83° W 19:40:01 10° N
H-2A R/B 3.3 19:31:00 10° S 19:34:51 60° W 19:38:42 10° NNW
Meteor 1-19 Rocket 4.1 19:30:05 10° N 19:35:34 61° E 19:41:07 10° SSE
Tiangong 2 1.5 19:33:10 10° WNW 19:36:16 60° SW 19:37:28 32° SSE
Cosmos 1634 Rocket 4.4 19:36:09 10° NNE 19:41:46 37° E 19:47:25 10° SSE
GPS 2-12 Rocket1 3.5 19:39:33 10° W 19:44:13 59° SSW 19:46:01 35° SE
FengYun 1-2 T 4.4 19:39:55 10° S 19:45:25 75° WSW 19:50:54 10° NNW
Envisat 3.2 19:41:55 16° SE 19:45:43 44° ENE 19:50:31 10° N
Cosmos 389 Rocket 3.1 19:47:43 10° S 19:50:11 43° SSE 19:50:11 43° SSE
Aurora 2 Rocket 2.7 19:49:14 10° SW 19:53:01 53° SSE 19:53:31 50° SE
SJ-6B 2.5 19:53:48 45° SSE 19:54:53 87° ENE 19:58:41 10° N
USA 215 4.4 19:51:51 10° NNE 19:57:47 39° NW 20:03:44 10° WSW
SL-16 R/B 4.3 19:56:38 10° NW 20:01:18 27° WSW 20:05:58 10° SSW
CZ-2D R/B 3.9 20:02:57 45° N 20:02:57 45° N 20:05:41 10° N
Meteor 2-20 4.5 19:56:45 10° SSE 20:02:40 53° E 20:08:36 10° NNE
Cosmos 1110 Rocket 4.0 20:09:26 10° NNW 20:14:44 81° WSW 20:16:32 43° S
Cosmos 2263 Rocket 4.3 20:13:25 10° WSW 20:17:48 24° WNW 20:22:13 10° NNW
Cosmos 1603 3.8 20:15:05 10° NNW 20:20:39 71° WSW 20:22:39 40° S
CZ-4C R/B 4.1 20:17:09 10° N 20:21:08 26° NNE 20:21:08 26° NNE
USA 229 DEB 3.6 20:29:30 10° SSW 20:35:33 75° SSW 20:35:33 75° SSW
USA 229 3.6 20:29:38 10° SSW 20:35:32 72° SSW 20:35:32 72° SSW
Meteosat 1 Rocket2 4.3 20:36:52 10° WSW 20:41:22 61° SW 20:41:22 61° SW
